Theta_e
310 311 311 311 310 310 311 311 311 311 314 315 314 313 312 311 311 313 312 311 308 305 304 304 301 301 300 300 301 300 300 300 297 291 292 291 288 287 286 286 286 284 284
307 308 308 307 307 305 304 305 304 302 302 303 307 307 306 306 306 308 306 305 303 301 299 298 297 297 297 297 297 294 294 292 294 287 285 285 285 284 284 283 285 286 283
304 305 304 304 304 302 301 300 300 299 299 299 300 302 301 299 300 301 301 300 299 297 296 295 294 294 291 290 290 289 289 287 285 283 282 284 283 282 281 281 281 280 283
303 303 301 301 301 300 300 300 298 298 297 297 297 296 296 296 296 294 294 294 294 293 292 292 291 291 289 288 287 285 284 283 283 281 280 281 281 282 280 277 277 276 278
300 299 298 298 299 300 298 297 296 294 294 293 292 292 292 293 291 291 290 290 289 288 288 288 288 287 288 287 285 284 284 282 281 280 279 279 279 279 278 278 277 275 276
297 296 294 294 292 293 292 290 290 289 289 288 286 286 286 288 292 292 290 288 287 286 285 285 286 285 288 290 290 289 287 284 280 279 278 279 280 279 278 276 276 271 269
293 291 289 288 287 287 287 287 286 285 285 284 284 284 284 286 291 291 289 286 285 285 284 284 284 284 284 285 288 288 286 288 287 283 280 280 279 279 279 275 273 273 271
288 287 287 287 286 285 285 285 284 284 284 283 283 283 284 286 291 290 287 284 284 284 284 283 283 283 283 283 283 282 281 281 281 282 281 280 279 279 278 276 273 270 271
287 286 285 285 283 284 283 283 282 281 280 279 282 280 282 282 290 290 286 283 283 283 283 283 283 283 286 286 283 281 279 279 283 284 283 283 282 281 278 272 263 262 262
286 286 285 283 283 281 281 280 281 281 280 281 283 283 279 281 289 288 285 282 281 281 282 283 283 283 287 287 281 278 274 277 277 273 277 280 280 278 278 276 271 261 261
284 283 281 280 280 280 278 275 277 278 279 276 278 279 281 279 282 288 287 282 281 280 280 280 282 286 286 287 286 279 277 278 277 271 271 272 273 273 273 273 274 268 260
281 280 278 277 280 279 278 273 275 277 276 275 275 274 276 277 282 287 287 286 285 280 280 280 281 285 285 285 283 282 284 280 268 266 264 268 270 270 271 271 271 271 273
279 277 275 276 277 276 277 276 275 274 275 275 276 276 276 279 279 286 287 286 286 280 280 282 283 285 285 283 283 281 274 269 266 263 266 269 269 270 270 268 269 268 268
277 276 276 277 275 274 275 276 276 274 273 275 275 275 275 277 277 276 278 281 282 281 281 279 282 282 282 277 274 277 271 268 268 266 266 268 268 265 264 266 262 264 261
276 275 275 275 275 274 274 275 276 274 278 275 276 275 274 275 277 280 279 275 276 277 269 268 267 268 270 269 268 268 267 266 266 263 263 265 267 267 266 265 264 261 262
275 274 274 274 272 273 273 272 282 282 284 285 284 281 277 283 284 285 285 284 283 282 270 265 267 272 273 273 271 270 268 267 268 267 266 267 267 267 267 264 265 263 262
273 273 272 272 272 271 270 271 271 277 283 284 284 284 284 284 284 285 285 285 285 284 279 276 274 273 273 272 270 270 270 270 271 268 268 267 267 266 265 265 265 265 263
271 270 270 269 270 269 270 272 271 270 272 273 279 282 283 284 284 284 284 283 280 282 281 279 276 275 273 272 271 271 271 271 269 269 268 267 266 266 265 264 265 264 264
270 269 270 269 269 271 272 270 269 268 270 271 270 276 274 281 284 284 284 281 279 279 280 279 280 278 274 272 273 273 273 272 270 269 268 267 267 266 265 265 265 265 264
270 269 271 271 273 273 270 269 267 270 271 270 269 268 269 270 270 271 270 272 279 280 280 279 280 280 276 273 273 274 272 272 269 268 268 268 267 266 266 265 264 264 263
270 270 271 272 272 271 269 268 271 270 269 270 269 269 278 276 276 275 277 277 278 278 279 279 279 279 275 274 274 273 272 272 270 268 268 268 267 265 265 265 265 264 263
271 271 271 270 269 268 268 269 270 270 269 270 269 270 276 271 272 270 270 272 276 278 278 278 278 278 277 273 273 273 272 270 270 268 268 268 267 266 265 264 264 263 262
268 268 268 266 266 267 267 267 268 268 266 266 266 267 266 264 264 265 269 270 273 273 273 274 274 273 273 271 272 273 272 270 269 269 268 267 266 265 265 264 263 262 261
265 265 265 265 266 266 266 266 266 266 266 263 261 263 264 264 264 264 264 263 264 263 262 263 267 267 268 268 271 271 271 271 271 270 268 267 266 265 264 263 263 262 262
262 262 261 261 262 263 263 263 263 263 262 262 260 259 258 259 260 260 260 260 262 262 262 262 260 262 262 263 265 265 268 269 269 269 268 266 266 265 264 263 262 261 261
260 259 259 259 261 261 261 261 261 261 260 261 259 258 258 258 259 259 259 258 258 257 259 257 258 260 260 262 262 264 267 269 268 268 267 266 264 264 263 262 261 261 260
Wind_Speed
7 7 8 7 6 6 6 5 5 5 4 5 5 5 4 3 2 2 2 4 5 3 2 6 3 5 2 3 3 2 2 2 3 1 2 4 3 4 2 2 1 1 2
7 7 7 7 7 6 6 6 6 5 4 4 4 5 4 3 1 3 4 4 6 6 5 4 5 3 4 4 3 3 3 2 3 4 2 2 2 1 1 1 2 2 3
7 8 7 7 8 7 6 6 6 6 4 4 4 4 3 1 3 3 4 4 3 4 4 5 5 6 4 3 3 4 3 2 3 3 3 1 2 1 0 1 0 2 3
8 8 8 7 7 7 6 6 5 5 5 4 4 4 4 3 3 3 4 4 5 4 4 4 4 4 6 6 5 5 4 4 3 3 2 2 1 1 2 0 3 1 3
7 7 7 7 7 7 7 6 6 5 5 5 5 5 4 4 3 4 5 5 6 6 6 5 4 4 5 6 4 4 5 3 2 2 1 1 2 1 2 2 2 2 3
7 8 7 8 7 7 7 6 6 6 5 5 5 6 5 3 7 7 6 6 6 6 6 5 5 6 7 10 10 8 5 4 3 3 2 3 4 3 2 2 1 3 3
8 7 7 7 7 7 6 6 6 6 5 5 5 6 5 5 7 8 8 5 6 6 7 6 5 3 4 5 10 11 9 7 3 4 4 4 4 4 4 1 1 2 3
8 8 8 8 7 6 7 7 6 5 6 4 5 5 5 4 7 8 9 6 5 5 5 6 6 5 4 5 5 5 4 2 2 1 2 3 3 4 3 3 3 2 3
8 8 7 7 8 8 7 7 5 5 4 3 3 5 5 4 9 10 8 5 6 4 4 4 5 5 8 9 5 5 3 2 1 4 5 6 7 6 4 3 1 3 3
9 9 8 7 8 7 6 6 3 4 4 4 5 3 2 4 8 9 7 3 5 4 3 4 7 5 10 10 5 5 5 4 4 2 1 3 4 3 3 3 3 3 2
7 7 7 7 8 8 6 3 5 5 5 5 5 4 3 3 4 8 10 3 4 4 4 3 3 10 10 10 10 6 7 5 8 4 2 2 2 2 2 2 3 3 3
9 8 7 6 6 6 8 4 4 5 6 4 5 3 3 3 6 8 8 7 8 5 5 4 4 11 11 11 7 8 9 7 3 3 2 4 3 3 3 2 2 3 3
10 8 6 6 6 6 7 6 4 4 5 4 4 3 3 2 2 10 10 9 9 3 3 7 11 11 12 9 9 8 2 3 3 3 4 5 3 3 3 1 2 2 3
11 9 7 9 7 6 4 4 5 4 4 4 3 3 3 3 3 2 2 3 7 5 6 4 6 8 8 6 3 5 4 4 4 3 3 2 2 2 2 2 2 1 1
9 8 7 6 6 5 3 5 4 3 5 4 4 3 4 3 4 8 8 4 5 6 3 2 1 1 2 2 1 2 3 3 4 3 2 3 3 3 3 2 2 2 2
8 5 4 5 4 4 4 1 4 5 9 8 6 6 3 4 5 11 13 13 12 11 2 2 2 4 6 6 6 5 4 6 6 5 5 5 6 6 6 3 3 3 3
7 6 4 5 3 4 3 3 2 3 4 6 7 6 7 6 6 8 8 11 12 11 5 5 5 5 6 5 5 5 7 6 7 7 7 7 6 6 5 5 5 5 4
6 8 4 2 3 3 2 2 3 1 1 2 4 5 5 7 10 11 10 8 4 8 6 7 6 7 6 6 6 7 7 6 7 7 8 7 7 6 6 7 7 7 7
7 4 4 4 3 3 3 3 2 1 1 1 2 4 6 11 11 11 12 5 5 6 6 7 7 6 7 7 8 8 9 8 7 7 7 8 8 8 9 8 7 9 7
5 8 6 4 3 3 2 2 1 1 1 1 1 2 2 2 1 2 2 2 5 6 6 7 7 7 7 8 8 8 7 8 7 8 8 8 8 9 10 9 9 8 9
5 5 5 3 4 2 0 1 1 0 1 2 2 3 8 3 2 3 4 4 5 6 6 6 6 7 6 7 8 7 8 8 8 8 7 8 8 8 10 10 10 9 6
5 4 4 4 3 2 2 3 2 2 2 2 2 3 12 3 3 3 3 4 5 5 5 6 7 7 4 6 7 7 8 8 7 7 8 8 8 9 9 9 9 8 8
4 5 4 2 1 1 2 1 1 2 2 2 3 3 3 3 3 3 4 4 4 5 4 5 6 5 3 3 4 7 8 8 7 7 8 8 9 9 9 10 10 9 9
4 4 3 2 2 2 2 2 2 3 3 2 2 2 4 4 4 4 4 3 3 3 3 3 4 6 5 5 7 6 7 6 6 6 9 9 9 9 9 9 9 11 9
3 3 2 2 2 2 2 2 3 3 3 3 3 2 3 4 4 5 4 3 4 4 4 4 3 4 5 7 9 11 10 12 10 11 8 9 13 12 9 9 8 7 8
3 3 2 2 2 2 2 2 2 2 3 3 3 3 4 4 4 4 4 4 4 4 5 3 4 8 8 7 8 10 13 16 13 13 10 9 9 8 7 9 11 8 9
Wind_Direction
153 144 140 139 135 137 150 136 121 112 146 138 133 118 106 106 83 53 110 139 146 147 152 145 163 143 146 139 126 133 159 144 125 75 94 114 104 136 114 103 112 46 335
146 135 135 132 134 123 112 103 110 121 93 119 152 126 123 109 94 191 188 170 158 168 161 136 138 137 132 126 113 131 131 90 121 137 116 127 133 150 146 134 26 25 352
135 131 133 133 127 122 119 115 116 123 111 71 65 84 103 158 166 174 172 150 131 133 145 151 154 135 127 107 124 122 97 66 73 122 137 90 103 151 69 332 340 306 317
140 141 139 136 127 121 117 121 124 119 121 115 110 119 130 134 105 107 113 119 112 99 99 110 120 144 147 143 130 122 101 100 73 81 76 126 127 112 77 66 326 299 310
136 131 137 129 121 122 122 114 107 104 111 117 126 110 99 111 123 136 132 122 119 110 91 85 92 100 106 124 129 131 124 103 100 91 112 134 150 137 187 218 235 280 294
135 137 135 132 128 126 125 132 133 137 132 122 118 124 118 118 127 138 138 133 123 118 114 99 92 92 101 113 115 125 144 145 152 145 170 186 194 170 178 183 198 34 324
142 135 134 132 136 150 143 135 133 132 113 119 122 118 109 114 128 132 135 124 129 134 134 131 118 110 105 110 107 99 85 77 129 170 183 194 175 182 154 151 185 181 242
144 150 153 150 144 144 136 135 131 128 129 137 121 120 120 130 135 138 125 122 118 132 141 141 143 148 148 131 123 111 110 104 62 75 180 167 148 149 152 172 178 215 322
160 159 158 150 145 148 148 144 137 131 124 144 137 130 136 145 146 143 129 119 117 128 139 152 152 158 175 163 152 155 163 155 140 139 146 151 150 150 160 101 323 78 304
170 169 158 154 150 146 144 139 116 117 137 130 126 115 124 140 152 147 136 122 125 141 149 164 173 175 183 186 173 175 187 193 166 85 118 166 155 165 166 178 153 159 187
146 138 140 146 143 140 130 122 128 138 127 108 115 118 148 154 159 158 154 138 156 153 182 189 194 187 190 200 193 184 197 159 193 174 170 179 188 165 156 169 183 159 168
133 128 129 134 134 131 123 102 115 128 118 119 118 117 161 177 182 182 171 180 180 165 202 207 194 200 205 208 211 208 217 181 137 155 170 209 199 189 197 200 215 237 248
122 128 130 121 116 117 129 134 124 123 137 166 160 182 197 186 205 195 193 202 204 193 203 213 205 211 213 210 208 220 153 123 155 173 210 215 193 177 152 231 290 308 284
132 136 135 129 127 130 129 139 139 153 153 159 180 208 206 183 208 202 177 189 220 210 223 223 202 211 203 182 187 215 150 168 190 214 219 214 139 133 183 174 180 198 58
128 137 137 127 130 130 119 165 173 214 167 182 186 177 184 208 221 211 196 191 190 198 130 46 48 96 166 187 223 205 186 165 209 210 202 199 199 179 200 166 181 182 196
127 128 123 121 125 126 129 49 220 206 207 212 202 193 231 224 203 220 221 222 219 207 96 174 215 211 219 219 221 225 217 219 224 215 224 215 211 207 208 190 185 197 197
121 125 121 114 128 139 116 114 134 318 254 248 256 273 279 270 278 271 259 238 231 226 220 225 233 237 242 239 233 230 241 226 216 218 225 223 219 219 201 208 205 206 228
82 81 75 75 104 102 114 111 96 126 105 330 339 320 285 277 268 264 258 262 258 251 239 240 233 235 233 236 232 236 241 229 214 224 223 220 213 214 210 218 216 216 210
94 83 104 103 81 88 88 92 139 119 3 293 344 350 346 321 295 269 263 246 240 245 253 259 257 241 228 230 237 235 231 224 219 219 221 219 214 210 221 218 221 217 203
90 100 86 99 102 100 90 153 133 115 311 291 306 267 283 358 319 270 274 279 278 261 257 259 259 251 220 229 234 237 231 228 215 220 227 224 221 215 223 217 209 209 207
94 77 86 88 77 74 148 151 105 307 264 280 258 252 299 279 284 261 267 258 256 267 273 270 269 263 224 229 237 238 233 235 226 224 227 230 223 221 218 219 216 210 201
73 88 69 65 68 57 27 19 24 23 344 334 320 329 330 347 316 305 293 291 294 286 278 284 287 289 251 226 232 240 244 241 239 230 233 233 229 227 222 218 215 206 198
77 79 79 85 95 88 78 48 19 22 357 348 330 320 320 297 292 287 288 294 305 308 316 314 309 306 311 267 259 253 254 249 240 234 234 231 227 227 224 221 212 209 197
68 87 104 104 81 65 48 36 26 352 335 328 315 307 306 302 299 289 288 300 306 293 293 287 301 305 305 306 305 273 262 268 271 264 240 247 246 233 222 219 213 212 208
73 78 72 52 42 35 10 5 19 14 2 355 333 329 310 308 307 301 298 298 307 313 303 303 290 292 293 289 291 290 284 270 268 269 261 251 255 239 223 220 212 210 204
75 70 60 37 26 20 9 359 10 354 321 307 297 295 291 291 291 300 299 305 307 298 301 290 298 307 310 303 291 292 295 295 289 268 255 251 245 241 223 221 211 205 199